| time (UTC) | temp F | wind direction | speed MPH | gust MPH | rain 1hr in | rain 24hr in | rain mn in | humidity % | barometer mb |
| 20260506182525 | 66 | 310 | 4.0 | 15.0 | 0.00 | 0.00 | 0.00 | 76 | 1007.9 |
| 20260506182025 | 66 | 297 | 4.0 | 15.0 | 0.00 | 0.00 | 0.00 | 76 | 1007.8 |
| 20260506181544 | 66 | 225 | 7.0 | 15.0 | 0.00 | 0.00 | 0.00 | 76 | 1007.8 |
| 20260506181025 | 65 | 236 | 3.0 | 17.0 | 0.00 | 0.00 | 0.00 | 76 | 1007.8 |
| 20260506180529 | 65 | 221 | 5.0 | 17.0 | 0.00 | 0.00 | 0.00 | 76 | 1007.9 |
| 20260506180048 | 66 | 279 | 6.0 | 12.0 | 0.00 | 0.00 | 0.00 | 75 | 1007.9 |
| 20260506175527 | 66 | 290 | 5.0 | 13.0 | 0.00 | 0.00 | 0.00 | 75 | 1008.0 |
| 20260506175024 | 66 | 236 | 4.0 | 13.0 | 0.00 | 0.00 | 0.00 | 75 | 1008.0 |
| 20260506174545 | 66 | 278 | 4.0 | 12.0 | 0.00 | 0.00 | 0.00 | 74 | 1008.1 |
| 20260506174028 | 66 | 71 | 4.0 | 18.0 | 0.00 | 0.00 | 0.00 | 74 | 1008.0 |
| 20260506173529 | 66 | 259 | 7.0 | 19.0 | 0.00 | 0.00 | 0.00 | 74 | 1008.0 |
| 20260506173053 | 66 | 218 | 9.0 | 19.0 | 0.00 | 0.00 | 0.00 | 73 | 1008.2 |
| 20260506172527 | 66 | 137 | 5.0 | 14.0 | 0.00 | 0.00 | 0.00 | 74 | 1008.1 |
| 20260506172030 | 66 | 213 | 4.0 | 14.0 | 0.00 | 0.00 | 0.00 | 74 | 1008.3 |
| 20260506171551 | 66 | 244 | 4.0 | 14.0 | 0.00 | 0.00 | 0.00 | 74 | 1008.1 |
| 20260506171027 | 67 | 290 | 3.0 | 11.0 | 0.00 | 0.00 | 0.00 | 74 | 1008.3 |
| 20260506170526 | 67 | 286 | 3.0 | 12.0 | 0.00 | 0.00 | 0.00 | 73 | 1008.4 |
| 20260506170042 | 67 | 236 | 4.0 | 13.0 | 0.00 | 0.00 | 0.00 | 73 | 1008.5 |
| 20260506165528 | 67 | 229 | 4.0 | 13.0 | 0.00 | 0.00 | 0.00 | 73 | 1008.4 |
| 20260506165032 | 67 | 236 | 5.0 | 13.0 | 0.00 | 0.00 | 0.00 | 75 | 1008.4 |
| 20260506164543 | 66 | 227 | 5.0 | 13.0 | 0.00 | 0.00 | 0.00 | 75 | 1008.4 |
| 20260506164027 | 67 | 252 | 6.0 | 13.0 | 0.00 | 0.00 | 0.00 | 75 | 1008.6 |
| 20260506163525 | 67 | 285 | 3.0 | 10.0 | 0.00 | 0.00 | 0.00 | 76 | 1008.6 |
| 20260506163049 | 67 | 274 | 4.0 | 17.0 | 0.00 | 0.00 | 0.00 | 74 | 1008.6 |
| 20260506162530 | 67 | 268 | 3.0 | 18.0 | 0.00 | 0.00 | 0.00 | 73 | 1009.0 |
| 20260506162024 | 67 | 9 | 5.0 | 18.0 | 0.00 | 0.00 | 0.00 | 69 | 1009.1 |
| 20260506161553 | 68 | 252 | 6.0 | 18.0 | 0.00 | 0.00 | 0.00 | 67 | 1009.3 |
| 20260506161027 | 68 | 253 | 6.0 | 17.0 | 0.00 | 0.00 | 0.00 | 68 | 1009.4 |
| 20260506160527 | 69 | 221 | 2.0 | 12.0 | 0.00 | 0.00 | 0.00 | 67 | 1009.4 |
| 20260506160045 | 69 | 279 | 3.0 | 17.0 | 0.00 | 0.00 | 0.00 | 65 | 1009.5 |
| 20260506155527 | 69 | 217 | 5.0 | 17.0 | 0.00 | 0.00 | 0.00 | 65 | 1009.6 |
| 20260506155027 | 69 | 265 | 4.0 | 18.0 | 0.00 | 0.00 | 0.00 | 64 | 1009.6 |
| 20260506154544 | 69 | 166 | 4.0 | 18.0 | 0.00 | 0.00 | 0.00 | 63 | 1009.6 |
| 20260506154025 | 69 | 264 | 5.0 | 15.0 | 0.00 | 0.00 | 0.00 | 63 | 1009.5 |
| 20260506153525 | 69 | 259 | 3.0 | 12.0 | 0.00 | 0.00 | 0.00 | 63 | 1009.5 |
| 20260506153043 | 69 | 276 | 3.0 | 17.0 | 0.00 | 0.00 | 0.00 | 63 | 1009.4 |
| 20260506152528 | 69 | 280 | 6.0 | 17.0 | 0.00 | 0.00 | 0.00 | 63 | 1009.4 |
| 20260506152028 | 69 | 221 | 3.0 | 13.0 | 0.00 | 0.00 | 0.00 | 63 | 1009.4 |
| 20260506151546 | 69 | 255 | 4.0 | 13.0 | 0.00 | 0.00 | 0.00 | 62 | 1009.5 |
| 20260506151024 | 69 | 273 | 3.0 | 13.0 | 0.00 | 0.00 | 0.00 | 62 | 1009.6 |
| 20260506150527 | 69 | 253 | 3.0 | 12.0 | 0.00 | 0.00 | 0.00 | 62 | 1009.6 |
| 20260506150045 | 69 | 130 | 5.0 | 12.0 | 0.00 | 0.00 | 0.00 | 62 | 1009.5 |
| 20260506145528 | 69 | 244 | 3.0 | 12.0 | 0.00 | 0.00 | 0.00 | 62 | 1009.5 |
| 20260506145028 | 69 | 277 | 5.0 | 14.0 | 0.00 | 0.00 | 0.00 | 63 | 1009.6 |
| 20260506144543 | 68 | 169 | 4.0 | 14.0 | 0.00 | 0.00 | 0.00 | 62 | 1009.6 |
| 20260506144030 | 68 | 262 | 4.0 | 14.0 | 0.00 | 0.00 | 0.00 | 62 | 1009.6 |
| 20260506143527 | 68 | 271 | 3.0 | 11.0 | 0.00 | 0.00 | 0.00 | 63 | 1009.6 |
| 20260506143042 | 68 | 207 | 3.0 | 14.0 | 0.00 | 0.00 | 0.00 | 63 | 1009.7 |
| 20260506142528 | 68 | 224 | 2.0 | 14.0 | 0.00 | 0.00 | 0.00 | 63 | 1009.7 |
| 20260506142027 | 68 | 257 | 6.0 | 20.0 | 0.00 | 0.00 | 0.00 | 62 | 1009.6 |
| 20260506141546 | 68 | 289 | 3.0 | 20.0 | 0.00 | 0.00 | 0.00 | 62 | 1009.7 |
| 20260506141025 | 68 | 279 | 6.0 | 20.0 | 0.00 | 0.00 | 0.00 | 62 | 1009.6 |
| 20260506140525 | 68 | 124 | 4.0 | 14.0 | 0.00 | 0.00 | 0.00 | 61 | 1009.7 |
| 20260506140048 | 69 | 254 | 3.0 | 18.0 | 0.00 | 0.00 | 0.00 | 62 | 1009.6 |
| 20260506135535 | 68 | 290 | 6.0 | 18.0 | 0.00 | 0.00 | 0.00 | 61 | 1009.5 |
| 20260506135029 | 68 | 256 | 4.0 | 17.0 | 0.00 | 0.00 | 0.00 | 62 | 1009.5 |
| 20260506134610 | 68 | 263 | 5.0 | 18.0 | 0.00 | 0.00 | 0.00 | 62 | 1009.4 |
| 20260506134027 | 68 | 246 | 6.0 | 18.0 | 0.00 | 0.00 | 0.00 | 62 | 1009.4 |
| 20260506133528 | 68 | 238 | 7.0 | 14.0 | 0.00 | 0.00 | 0.00 | 62 | 1009.6 |
| 20260506133042 | 68 | 280 | 3.0 | 10.0 | 0.00 | 0.00 | 0.00 | 63 | 1009.5 |
| 20260506132527 | 68 | 275 | 4.0 | 15.0 | 0.00 | 0.00 | 0.00 | 63 | 1009.4 |
| 20260506132024 | 68 | 231 | 5.0 | 15.0 | 0.00 | 0.00 | 0.00 | 63 | 1009.4 |
| 20260506131553 | 68 | 262 | 6.0 | 16.0 | 0.00 | 0.00 | 0.00 | 63 | 1009.4 |
| 20260506131030 | 68 | 70 | 4.0 | 16.0 | 0.00 | 0.00 | 0.00 | 62 | 1009.5 |
| 20260506130528 | 68 | 195 | 5.0 | 13.0 | 0.00 | 0.00 | 0.00 | 63 | 1009.7 |
| 20260506130040 | 68 | 198 | 5.0 | 18.0 | 0.00 | 0.00 | 0.00 | 63 | 1009.7 |
| 20260506125528 | 68 | 247 | 5.0 | 18.0 | 0.00 | 0.00 | 0.00 | 63 | 1009.8 |
| 20260506125027 | 68 | 257 | 4.0 | 14.0 | 0.00 | 0.00 | 0.00 | 63 | 1009.7 |
| 20260506124545 | 68 | 164 | 3.0 | 14.0 | 0.00 | 0.00 | 0.00 | 64 | 1009.8 |
| 20260506124030 | 68 | 202 | 3.0 | 17.0 | 0.00 | 0.00 | 0.00 | 64 | 1009.7 |
| 20260506123528 | 68 | 109 | 5.0 | 17.0 | 0.00 | 0.00 | 0.00 | 63 | 1009.7 |
| 20260506123047 | 68 | 121 | 5.0 | 13.0 | 0.00 | 0.00 | 0.00 | 64 | 1009.6 |
| 20260506122527 | 67 | 273 | 3.0 | 13.0 | 0.00 | 0.00 | 0.00 | 65 | 1009.7 |
| 20260506122027 | 67 | 175 | 2.0 | 13.0 | 0.00 | 0.00 | 0.00 | 65 | 1009.6 |
| 20260506121542 | 67 | 155 | 5.0 | 13.0 | 0.00 | 0.00 | 0.00 | 66 | 1009.8 |
| 20260506121025 | 67 | 159 | 4.0 | 15.0 | 0.00 | 0.00 | 0.00 | 66 | 1009.7 |
| 20260506120530 | 66 | 228 | 6.0 | 15.0 | 0.00 | 0.00 | 0.00 | 67 | 1009.7 |
| 20260506120043 | 66 | 251 | 5.0 | 12.0 | 0.00 | 0.00 | 0.00 | 68 | 1009.6 |
| 20260506115526 | 65 | 265 | 3.0 | 11.0 | 0.00 | 0.00 | 0.00 | 69 | 1009.6 |
| 20260506115024 | 66 | 166 | 6.0 | 12.0 | 0.00 | 0.00 | 0.00 | 69 | 1009.7 |
| 20260506114551 | 66 | 155 | 4.0 | 13.0 | 0.00 | 0.00 | 0.00 | 69 | 1009.7 |
| 20260506114027 | 66 | 189 | 3.0 | 14.0 | 0.00 | 0.00 | 0.00 | 69 | 1009.7 |
| 20260506113528 | 65 | 258 | 4.0 | 14.0 | 0.00 | 0.00 | 0.00 | 70 | 1009.7 |
| 20260506113045 | 65 | 281 | 5.0 | 16.0 | 0.00 | 0.00 | 0.00 | 70 | 1009.7 |
| 20260506112524 | 65 | 194 | 5.0 | 16.0 | 0.00 | 0.00 | 0.00 | 70 | 1009.7 |
| 20260506112027 | 65 | 230 | 4.0 | 12.0 | 0.00 | 0.00 | 0.00 | 70 | 1009.7 |
| 20260506111547 | 65 | 202 | 2.0 | 11.0 | 0.00 | 0.00 | 0.00 | 70 | 1009.8 |
| 20260506111027 | 64 | 179 | 5.0 | 11.0 | 0.00 | 0.00 | 0.00 | 71 | 1009.8 |
| 20260506110527 | 64 | 259 | 2.0 | 11.0 | 0.00 | 0.00 | 0.00 | 72 | 1009.8 |
| 20260506110040 | 64 | 243 | 3.0 | 11.0 | 0.00 | 0.00 | 0.00 | 72 | 1009.8 |
| 20260506105527 | 63 | 212 | 3.0 | 13.0 | 0.00 | 0.00 | 0.00 | 73 | 1009.8 |
| 20260506105028 | 63 | 248 | 3.0 | 13.0 | 0.00 | 0.00 | 0.00 | 73 | 1009.7 |
| 20260506104536 | 63 | 131 | 3.0 | 11.0 | 0.00 | 0.00 | 0.00 | 74 | 1009.7 |
| 20260506104028 | 62 | 259 | 3.0 | 11.0 | 0.00 | 0.00 | 0.00 | 75 | 1009.7 |
| 20260506103528 | 62 | 292 | 3.0 | 8.0 | 0.00 | 0.00 | 0.00 | 75 | 1009.8 |
| 20260506103039 | 62 | 244 | 3.0 | 9.0 | 0.00 | 0.00 | 0.00 | 75 | 1009.8 |
| 20260506102528 | 62 | 296 | 2.0 | 9.0 | 0.00 | 0.00 | 0.00 | 76 | 1009.8 |
| 20260506102025 | 62 | 241 | 3.0 | 10.0 | 0.00 | 0.00 | 0.00 | 76 | 1009.8 |
| 20260506101545 | 62 | 155 | 2.0 | 10.0 | 0.00 | 0.00 | 0.00 | 76 | 1009.9 |
| 20260506101028 | 62 | 238 | 2.0 | 8.0 | 0.00 | 0.00 | 0.00 | 76 | 1009.9 |
| 20260506100528 | 62 | 273 | 1.0 | 13.0 | 0.00 | 0.00 | 0.00 | 76 | 1009.9 |
| 20260506100044 | 62 | 256 | 3.0 | 13.0 | 0.00 | 0.00 | 0.00 | 76 | 1009.8 |
| 20260506095529 | 62 | 199 | 2.0 | 11.0 | 0.00 | 0.00 | 0.00 | 77 | 1009.7 |
| 20260506095028 | 62 | 229 | 2.0 | 11.0 | 0.00 | 0.00 | 0.00 | 76 | 1009.7 |
| 20260506094540 | 62 | 211 | 1.0 | 9.0 | 0.00 | 0.00 | 0.00 | 77 | 1009.7 |
| 20260506094030 | 62 | 215 | 3.0 | 7.0 | 0.00 | 0.00 | 0.00 | 77 | 1009.5 |
| 20260506093524 | 62 | 122 | 1.0 | 11.0 | 0.00 | 0.00 | 0.00 | 77 | 1009.6 |
| 20260506093036 | 63 | 193 | 2.0 | 11.0 | 0.00 | 0.00 | 0.00 | 77 | 1009.6 |
| 20260506092528 | 63 | 250 | 5.0 | 11.0 | 0.00 | 0.00 | 0.00 | 77 | 1009.5 |
| 20260506092028 | 63 | 134 | 3.0 | 11.0 | 0.00 | 0.00 | 0.00 | 77 | 1009.4 |
| 20260506091545 | 63 | 214 | 2.0 | 11.0 | 0.00 | 0.00 | 0.00 | 77 | 1009.4 |
| 20260506091027 | 63 | 79 | 1.0 | 11.0 | 0.00 | 0.00 | 0.00 | 77 | 1009.5 |
| 20260506090527 | 63 | 242 | 1.0 | 11.0 | 0.00 | 0.00 | 0.00 | 77 | 1009.5 |
| 20260506090044 | 63 | 219 | 3.0 | 12.0 | 0.00 | 0.00 | 0.00 | 76 | 1009.5 |
| 20260506085527 | 63 | 173 | 3.0 | 12.0 | 0.00 | 0.00 | 0.00 | 77 | 1009.6 |
| 20260506085024 | 63 | 289 | 4.0 | 9.0 | 0.00 | 0.00 | 0.00 | 77 | 1009.7 |
| 20260506084542 | 63 | 254 | 3.0 | 8.0 | 0.00 | 0.00 | 0.00 | 77 | 1009.7 |
| 20260506084031 | 63 | 216 | 2.0 | 8.0 | 0.00 | 0.00 | 0.00 | 77 | 1009.7 |
| 20260506083524 | 63 | 267 | 3.0 | 7.0 | 0.00 | 0.00 | 0.00 | 77 | 1009.9 |
| 20260506083051 | 63 | 277 | 2.0 | 9.0 | 0.00 | 0.00 | 0.00 | 77 | 1009.9 |
| 20260506082527 | 63 | 227 | 3.0 | 10.0 | 0.00 | 0.00 | 0.00 | 76 | 1010.0 |
| 20260506082030 | 63 | 146 | 4.0 | 10.0 | 0.00 | 0.00 | 0.00 | 77 | 1010.0 |
| 20260506081550 | 63 | 238 | 2.0 | 10.0 | 0.00 | 0.00 | 0.00 | 77 | 1010.0 |
| 20260506081028 | 63 | 250 | 1.0 | 10.0 | 0.00 | 0.00 | 0.00 | 77 | 1010.1 |
| 20260506080529 | 63 | 128 | 2.0 | 8.0 | 0.00 | 0.00 | 0.00 | 77 | 1010.0 |
| 20260506073527 | 64 | 153 | 3.0 | 13.0 | 0.00 | 0.00 | 0.00 | 76 | 1009.9 |
| 20260506073043 | 64 | 271 | 3.0 | 12.0 | 0.00 | 0.00 | 0.00 | 76 | 1009.7 |
| 20260506072526 | 64 | 144 | 3.0 | 9.0 | 0.00 | 0.00 | 0.00 | 76 | 1009.7 |
| 20260506072031 | 64 | 217 | 2.0 | 12.0 | 0.00 | 0.00 | 0.00 | 76 | 1009.8 |
| 20260506071551 | 64 | 144 | 4.0 | 12.0 | 0.00 | 0.00 | 0.00 | 76 | 1009.9 |
| 20260506071028 | 64 | 169 | 3.0 | 12.0 | 0.00 | 0.00 | 0.00 | 76 | 1009.9 |
| 20260506070527 | 64 | 184 | 2.0 | 9.0 | 0.00 | 0.00 | 0.00 | 75 | 1009.9 |
| 20260506062027 | 65 | 215 | 4.0 | 11.0 | 0.00 | 0.00 | 0.00 | 75 | 1009.9 |
| 20260506061543 | 65 | 166 | 3.0 | 10.0 | 0.00 | 0.00 | 0.00 | 75 | 1010.0 |
| 20260506061030 | 65 | 130 | 3.0 | 10.0 | 0.00 | 0.00 | 0.00 | 75 | 1009.9 |
| 20260506060525 | 65 | 263 | 4.0 | 11.0 | 0.00 | 0.00 | 0.00 | 75 | 1009.9 |
| 20260506051027 | 65 | 188 | 3.0 | 10.0 | 0.00 | 0.00 | 0.00 | 73 | 1010.4 |
| 20260506050527 | 66 | 245 | 2.0 | 10.0 | 0.00 | 0.00 | 0.00 | 72 | 1010.5 |
| 20260506045028 | 66 | 169 | 2.0 | 11.0 | 0.00 | 0.00 | 0.00 | 72 | 1010.6 |
| 20260506044542 | 66 | 238 | 4.0 | 11.0 | 0.00 | 0.00 | 0.00 | 72 | 1010.6 |
| 20260506044029 | 66 | 161 | 4.0 | 9.0 | 0.00 | 0.00 | 0.00 | 72 | 1010.7 |
| 20260506043528 | 66 | 182 | 3.0 | 13.0 | 0.00 | 0.00 | 0.00 | 72 | 1010.5 |
| 20260506043039 | 66 | 176 | 3.0 | 13.0 | 0.00 | 0.00 | 0.00 | 72 | 1010.6 |
| 20260506042528 | 66 | 240 | 3.0 | 13.0 | 0.00 | 0.00 | 0.00 | 71 | 1010.6 |
| 20260506042028 | 66 | 128 | 5.0 | 13.0 | 0.00 | 0.00 | 0.00 | 71 | 1010.7 |
| 20260506041546 | 66 | 246 | 2.0 | 8.0 | 0.00 | 0.00 | 0.00 | 71 | 1010.6 |
| 20260506041024 | 66 | 269 | 3.0 | 10.0 | 0.00 | 0.00 | 0.00 | 71 | 1010.5 |
| 20260506040527 | 66 | 189 | 2.0 | 10.0 | 0.00 | 0.00 | 0.00 | 70 | 1010.5 |
| 20260506040045 | 66 | 226 | 4.0 | 10.0 | 0.00 | 0.00 | 0.00 | 70 | 1010.5 |
| 20260506035526 | 66 | 252 | 3.0 | 10.0 | 0.00 | 0.00 | 0.00 | 70 | 1010.6 |
| 20260506035027 | 66 | 227 | 4.0 | 10.0 | 0.00 | 0.00 | 0.00 | 69 | 1010.5 |
| 20260506034543 | 66 | 111 | 3.0 | 10.0 | 0.00 | 0.00 | 0.00 | 69 | 1010.5 |
| 20260506034026 | 66 | 207 | 4.0 | 12.0 | 0.00 | 0.00 | 0.00 | 69 | 1010.6 |
| 20260506033528 | 66 | 237 | 3.0 | 14.0 | 0.00 | 0.00 | 0.00 | 68 | 1010.6 |
| 20260506033041 | 67 | 169 | 3.0 | 14.0 | 0.00 | 0.00 | 0.00 | 68 | 1010.5 |
| 20260506032526 | 67 | 205 | 5.0 | 14.0 | 0.00 | 0.00 | 0.00 | 68 | 1010.5 |
| 20260506032027 | 67 | 223 | 4.0 | 11.0 | 0.00 | 0.00 | 0.00 | 67 | 1010.6 |
| 20260506031545 | 67 | 254 | 4.0 | 11.0 | 0.00 | 0.00 | 0.00 | 67 | 1010.6 |
| 20260506031028 | 67 | 281 | 5.0 | 12.0 | 0.00 | 0.00 | 0.00 | 67 | 1010.6 |
| 20260506030525 | 67 | 241 | 3.0 | 12.0 | 0.00 | 0.00 | 0.00 | 67 | 1010.6 |
| 20260506030044 | 67 | 253 | 2.0 | 14.0 | 0.00 | 0.00 | 0.00 | 66 | 1010.7 |
| 20260506025529 | 67 | 184 | 3.0 | 14.0 | 0.00 | 0.00 | 0.00 | 66 | 1010.7 |
| 20260506025026 | 67 | 153 | 4.0 | 16.0 | 0.00 | 0.00 | 0.00 | 65 | 1010.7 |
| 20260506024557 | 67 | 105 | 4.0 | 16.0 | 0.00 | 0.00 | 0.00 | 65 | 1010.7 |
| 20260506024026 | 68 | 147 | 4.0 | 18.0 | 0.00 | 0.00 | 0.00 | 65 | 1010.8 |
| 20260506023526 | 68 | 229 | 4.0 | 18.0 | 0.00 | 0.00 | 0.00 | 64 | 1010.8 |
| 20260506023041 | 68 | 221 | 3.0 | 14.0 | 0.00 | 0.00 | 0.00 | 64 | 1010.8 |
| 20260506022532 | 68 | 238 | 5.0 | 14.0 | 0.00 | 0.00 | 0.00 | 63 | 1010.6 |
| 20260506022026 | 68 | 259 | 3.0 | 13.0 | 0.00 | 0.00 | 0.00 | 63 | 1010.6 |
| 20260506021541 | 68 | 244 | 4.0 | 13.0 | 0.00 | 0.00 | 0.00 | 62 | 1010.6 |
| 20260506021026 | 68 | 143 | 5.0 | 12.0 | 0.00 | 0.00 | 0.00 | 62 | 1010.7 |
| 20260506020526 | 68 | 254 | 4.0 | 11.0 | 0.00 | 0.00 | 0.00 | 61 | 1010.5 |
| 20260506020039 | 69 | 279 | 3.0 | 13.0 | 0.00 | 0.00 | 0.00 | 61 | 1010.6 |
| 20260506015526 | 69 | 202 | 5.0 | 19.0 | 0.00 | 0.00 | 0.00 | 60 | 1010.7 |
| 20260506015026 | 69 | 190 | 5.0 | 19.0 | 0.00 | 0.00 | 0.00 | 60 | 1010.6 |
| 20260506014548 | 69 | 189 | 6.0 | 19.0 | 0.00 | 0.00 | 0.00 | 59 | 1010.4 |
| 20260506014025 | 69 | 153 | 4.0 | 13.0 | 0.00 | 0.00 | 0.00 | 59 | 1010.3 |
| 20260506013525 | 69 | 111 | 4.0 | 14.0 | 0.00 | 0.00 | 0.00 | 58 | 1010.3 |
| 20260506013044 | 70 | 204 | 6.0 | 14.0 | 0.00 | 0.00 | 0.00 | 58 | 1010.3 |
| 20260506012526 | 70 | 186 | 4.0 | 14.0 | 0.00 | 0.00 | 0.00 | 57 | 1010.2 |
| 20260506012027 | 70 | 263 | 5.0 | 13.0 | 0.00 | 0.00 | 0.00 | 57 | 1010.1 |
| 20260506011602 | 70 | 78 | 6.0 | 13.0 | 0.00 | 0.00 | 0.00 | 57 | 1010.0 |
| 20260506011026 | 70 | 96 | 3.0 | 12.0 | 0.00 | 0.00 | 0.00 | 57 | 1010.2 |
| 20260506010525 | 70 | 263 | 4.0 | 19.0 | 0.00 | 0.00 | 0.00 | 57 | 1010.0 |
| 20260506010040 | 70 | 214 | 2.0 | 19.0 | 0.00 | 0.00 | 0.00 | 57 | 1010.0 |
| 20260506005525 | 70 | 250 | 4.0 | 19.0 | 0.00 | 0.00 | 0.00 | 57 | 1009.9 |
| 20260506005025 | 70 | 260 | 5.0 | 14.0 | 0.00 | 0.00 | 0.00 | 57 | 1010.0 |
| 20260506004559 | 70 | 200 | 5.0 | 12.0 | 0.00 | 0.00 | 0.00 | 57 | 1010.0 |
| 20260506004025 | 70 | 157 | 4.0 | 12.0 | 0.00 | 0.00 | 0.00 | 57 | 1009.8 |
| 20260506003527 | 70 | 115 | 2.0 | 10.0 | 0.00 | 0.00 | 0.00 | 57 | 1009.8 |
| 20260506003045 | 70 | 242 | 4.0 | 10.0 | 0.00 | 0.00 | 0.00 | 57 | 1009.7 |
| 20260506002525 | 70 | 138 | 3.0 | 10.0 | 0.00 | 0.00 | 0.00 | 57 | 1009.5 |
| 20260506002027 | 71 | 130 | 4.0 | 10.0 | 0.00 | 0.00 | 0.00 | 56 | 1009.5 |
| 20260506001545 | 71 | 254 | 2.0 | 10.0 | 0.00 | 0.00 | 0.00 | 56 | 1009.5 |
| 20260506001028 | 71 | 225 | 3.0 | 10.0 | 0.00 | 0.00 | 0.00 | 55 | 1009.5 |
| 20260506000528 | 72 | 200 | 4.0 | 13.0 | 0.00 | 0.00 | 0.00 | 54 | 1009.5 |
| 20260506000110 | 72 | 250 | 3.0 | 13.0 | 0.00 | 0.00 | 0.00 | 53 | 1009.4 |
| 20260505235527 | 72 | 143 | 4.0 | 11.0 | 0.00 | 0.00 | 0.00 | 52 | 1009.4 |
| 20260505235027 | 73 | 213 | 4.0 | 12.0 | 0.00 | 0.00 | 0.00 | 51 | 1009.5 |
| 20260505234547 | 73 | 222 | 4.0 | 12.0 | 0.00 | 0.00 | 0.00 | 49 | 1009.3 |
| 20260505234027 | 74 | 173 | 2.0 | 12.0 | 0.00 | 0.00 | 0.00 | 48 | 1009.4 |
| 20260505233530 | 74 | 166 | 4.0 | 11.0 | 0.00 | 0.00 | 0.00 | 47 | 1009.3 |
| 20260505233045 | 74 | 121 | 3.0 | 11.0 | 0.00 | 0.00 | 0.00 | 46 | 1009.2 |
| 20260505232527 | 75 | 273 | 3.0 | 11.0 | 0.00 | 0.00 | 0.00 | 45 | 1009.1 |
| 20260505232028 | 75 | 290 | 2.0 | 11.0 | 0.00 | 0.00 | 0.00 | 44 | 1009.1 |
| 20260505231551 | 76 | 211 | 5.0 | 12.0 | 0.00 | 0.00 | 0.00 | 43 | 1009.1 |
| 20260505231027 | 76 | 215 | 4.0 | 15.0 | 0.00 | 0.00 | 0.00 | 42 | 1009.0 |
| 20260505230527 | 77 | 200 | 5.0 | 15.0 | 0.00 | 0.00 | 0.00 | 41 | 1008.9 |
| 20260505230101 | 78 | 218 | 4.0 | 11.0 | 0.00 | 0.00 | 0.00 | 39 | 1008.9 |
| 20260505225530 | 78 | 167 | 6.0 | 13.0 | 0.00 | 0.00 | 0.00 | 37 | 1008.9 |
| 20260505225028 | 78 | 232 | 4.0 | 13.0 | 0.00 | 0.00 | 0.00 | 36 | 1008.9 |
| 20260505224545 | 78 | 280 | 4.0 | 13.0 | 0.00 | 0.00 | 0.00 | 36 | 1008.8 |
| 20260505224027 | 78 | 205 | 3.0 | 18.0 | 0.00 | 0.00 | 0.00 | 37 | 1008.9 |
| 20260505223525 | 78 | 200 | 6.0 | 18.0 | 0.00 | 0.00 | 0.00 | 36 | 1009.0 |
| 20260505223041 | 79 | 227 | 5.0 | 18.0 | 0.00 | 0.00 | 0.00 | 36 | 1009.0 |
| 20260505222526 | 79 | 154 | 5.0 | 17.0 | 0.00 | 0.00 | 0.00 | 37 | 1009.0 |
| 20260505222028 | 79 | 252 | 7.0 | 17.0 | 0.00 | 0.00 | 0.00 | 37 | 1008.9 |
| 20260505221552 | 80 | 224 | 4.0 | 16.0 | 0.00 | 0.00 | 0.00 | 37 | 1008.8 |
| 20260505221027 | 80 | 296 | 4.0 | 17.0 | 0.00 | 0.00 | 0.00 | 37 | 1008.7 |
| 20260505220528 | 80 | 244 | 7.0 | 20.0 | 0.00 | 0.00 | 0.00 | 36 | 1008.7 |
| 20260505220045 | 80 | 176 | 6.0 | 20.0 | 0.00 | 0.00 | 0.00 | 36 | 1008.7 |
| 20260505215527 | 80 | 247 | 7.0 | 20.0 | 0.00 | 0.00 | 0.00 | 36 | 1008.7 |
| 20260505215027 | 80 | 273 | 7.0 | 18.0 | 0.00 | 0.00 | 0.00 | 35 | 1008.7 |
| 20260505214541 | 80 | 317 | 4.0 | 21.0 | 0.00 | 0.00 | 0.00 | 35 | 1008.7 |
| 20260505214026 | 80 | 285 | 7.0 | 21.0 | 0.00 | 0.00 | 0.00 | 35 | 1008.6 |
| 20260505213527 | 81 | 252 | 6.0 | 16.0 | 0.00 | 0.00 | 0.00 | 35 | 1008.7 |
| 20260505213040 | 81 | 267 | 4.0 | 17.0 | 0.00 | 0.00 | 0.00 | 35 | 1008.5 |
| 20260505212527 | 81 | 220 | 5.0 | 19.0 | 0.00 | 0.00 | 0.00 | 34 | 1008.5 |
| 20260505212027 | 81 | 261 | 7.0 | 19.0 | 0.00 | 0.00 | 0.00 | 33 | 1008.4 |
| 20260505211547 | 81 | 266 | 5.0 | 17.0 | 0.00 | 0.00 | 0.00 | 33 | 1008.5 |
| 20260505211027 | 81 | 243 | 5.0 | 19.0 | 0.00 | 0.00 | 0.00 | 33 | 1008.2 |
| 20260505210527 | 81 | 253 | 8.0 | 23.0 | 0.00 | 0.00 | 0.00 | 33 | 1008.5 |
| 20260505210046 | 81 | 249 | 7.0 | 23.0 | 0.00 | 0.00 | 0.00 | 32 | 1008.3 |
| 20260505205525 | 82 | 278 | 5.0 | 18.0 | 0.00 | 0.00 | 0.00 | 32 | 1008.3 |
| 20260505205028 | 82 | 188 | 6.0 | 14.0 | 0.00 | 0.00 | 0.00 | 33 | 1008.2 |
| 20260505204549 | 82 | 257 | 6.0 | 19.0 | 0.00 | 0.00 | 0.00 | 32 | 1008.3 |
| 20260505204025 | 82 | 234 | 6.0 | 21.0 | 0.00 | 0.00 | 0.00 | 32 | 1008.2 |
| 20260505203525 | 82 | 257 | 6.0 | 21.0 | 0.00 | 0.00 | 0.00 | 31 | 1008.3 |
| 20260505203053 | 82 | 246 | 7.0 | 15.0 | 0.00 | 0.00 | 0.00 | 31 | 1008.3 |
| 20260505202525 | 82 | 206 | 5.0 | 24.0 | 0.00 | 0.00 | 0.00 | 32 | 1008.2 |
| 20260505202025 | 82 | 269 | 9.0 | 24.0 | 0.00 | 0.00 | 0.00 | 31 | 1008.3 |
| 20260505201540 | 82 | 140 | 6.0 | 18.0 | 0.00 | 0.00 | 0.00 | 32 | 1008.2 |
| 20260505201025 | 82 | 248 | 3.0 | 18.0 | 0.00 | 0.00 | 0.00 | 33 | 1008.3 |
| 20260505200529 | 82 | 143 | 6.0 | 18.0 | 0.00 | 0.00 | 0.00 | 32 | 1008.4 |
| 20260505200047 | 82 | 260 | 6.0 | 17.0 | 0.00 | 0.00 | 0.00 | 33 | 1008.4 |
| 20260505195526 | 82 | 252 | 7.0 | 17.0 | 0.00 | 0.00 | 0.00 | 33 | 1008.5 |
| 20260505195025 | 82 | 256 | 7.0 | 22.0 | 0.00 | 0.00 | 0.00 | 31 | 1008.5 |
| 20260505194558 | 82 | 236 | 7.0 | 22.0 | 0.00 | 0.00 | 0.00 | 33 | 1008.5 |
| 20260505194027 | 82 | 275 | 6.0 | 20.0 | 0.00 | 0.00 | 0.00 | 34 | 1008.5 |
| 20260505193526 | 82 | 302 | 3.0 | 16.0 | 0.00 | 0.00 | 0.00 | 35 | 1008.5 |
| 20260505193044 | 82 | 315 | 5.0 | 21.0 | 0.00 | 0.00 | 0.00 | 36 | 1008.8 |
| 20260505192525 | 82 | 250 | 7.0 | 22.0 | 0.00 | 0.00 | 0.00 | 35 | 1008.8 |
| 20260505192025 | 82 | 266 | 8.0 | 22.0 | 0.00 | 0.00 | 0.00 | 36 | 1008.7 |
| 20260505191553 | 82 | 230 | 7.0 | 15.0 | 0.00 | 0.00 | 0.00 | 36 | 1008.8 |
| 20260505191025 | 82 | 288 | 6.0 | 17.0 | 0.00 | 0.00 | 0.00 | 35 | 1008.9 |
| 20260505190531 | 82 | 213 | 4.0 | 17.0 | 0.00 | 0.00 | 0.00 | 35 | 1008.9 |
| 20260505190041 | 82 | 261 | 8.0 | 17.0 | 0.00 | 0.00 | 0.00 | 35 | 1009.0 |
| 20260505185525 | 81 | 247 | 7.0 | 19.0 | 0.00 | 0.00 | 0.00 | 36 | 1009.1 |
| 20260505185029 | 81 | 229 | 7.0 | 22.0 | 0.00 | 0.00 | 0.00 | 35 | 1009.2 |
| 20260505184544 | 81 | 238 | 9.0 | 22.0 | 0.00 | 0.00 | 0.00 | 36 | 1009.3 |
| 20260505184024 | 82 | 225 | 5.0 | 19.0 | 0.00 | 0.00 | 0.00 | 35 | 1009.1 |
| 20260505183525 | 82 | 225 | 7.0 | 17.0 | 0.00 | 0.00 | 0.00 | 36 | 1009.3 |
| 20260505183046 | 82 | 111 | 6.0 | 14.0 | 0.00 | 0.00 | 0.00 | 37 | 1009.4 |